"Pseudo-MPEC" for N00fc1r

Created 2019 Aug 19 16:07:03 UT using Find_Orb

Click here for an explanation of pseudo-MPECs

 
 Astrometry: 
     N00fc1r  S2019 08 07G(GoVX^OP^Wvl!ae.q@mcoO84c`UPERM?!^w9g(Qx$Cy?/aj)..RC51
     N00fc1r  s2019 08 077Ff!`u+_97gX8K0,88]6p'i5j+%M9g%Q3E,tAkYZ)FmuK#'=oe-eC51
     N00fc1r  S2019 08 07FQj\Y=uGv4A2b$Bw-BD(H!d?pOM[O$5?:H6iI2p^-(FJ`B!G?E*gC51
     N00fc1r  s2019 08 07n,pw3+Lk@k+B'OlmE*'*$hM%il$s3$AsNaYjRS58vpgBcfLmVB5]C51
     N00fc1r  S2019 08 08%)Rp_tj38+G]7rOPipr,6xJ*/msFIxPOQFhKjV=u#3#MTpg#%'ahC51
     N00fc1r  s2019 08 08N[4wYd?oi/K-_NarQhh_^Uf;YEBtgpUUm5tsS9BCmPauk3'Z@rW,C51
     N00fc1r  S2019 08 08gj+cerY@(/T=oP`Kxj3s[FTouh4'U$g?C9RA3'wADFq^roN+C0+wC51
     N00fc1r  s2019 08 08YbrGvTWTAPx4\p0Iw-jvTbZL1/1TspRRX$T.X1cS;;hQ1x!._k*9C51
     N00fc1r  S2019 08 08-e?sN*MGUAstrometryYSg^-vpr9J3Tl?ej@M)e2wMQpF%!M0-YwC51
     N00fc1r  s2019 08 08EgM;_f?M@1l_Uf3_QE6$v,J!ax[q_:o*'vygcsn]*`w:L0SW/i\+C51
     N00fc1r  S2019 08 08u``]^A.w[W'=T[^qTRT8lQ,r;_OJ(e/XLoodj#b[CC5X[`2g:%YFC51
     N00fc1r  s2019 08 081+;K4fSTO1yZDi^`Is*Fb'HOnT'?2Xj!xDUM/5Lj3p(tsUX@=t!?C51
     N00fc1r  S2019 08 08#J[1QxQ0As.?N5Ocsv2UJ+0(%'W'FZQ[l\3wCs+^!Agd7:;Io?.YC51
     N00fc1r  s2019 08 084`Y;,mFA9(U6]xUV^mXY4vpNksw1'VgoF090CS9xCvQx,5EHYoa:C51
     N00fc1r  S2019 08 087^%redacted;:l408xf,c09b\Rm58(Z1*nH/@_nFXblFs_x_EaI^C51
     N00fc1r  s2019 08 08=ftIY/bDMFlSo!M.IMf2@f_YeD$LHbD46mm//x\Vji%E=3oDT[@@C51
     N00fc1r  S2019 08 08w_!ffc0TT#HTg1RIAv9Fu04jTB%sbEprh*5x9iUawBLOFn%9n!I\C51
     N00fc1r  s2019 08 08EW$K*ApUC4'espc2:rM7;SA;!FTpGW,mh1rM,h(OWcn*YWMOCeDvC51
     N00fc1r  S2019 08 08`_x,mH.JTUm?M@KoHTeH0xYLcIk-QGR7:y?.T2([RS+Tb1?dBqDHC51
     N00fc1r  s2019 08 08CaL4n?o21df0)t?oVTGd_ULqNj9Eh;COA1x!Qm3b1yL:Nk/*0n_eC51
     N00fc1r  S2019 08 09tVmeI9-e\]`m5x\O:n)Ab1fr;f\dL8(oWRbeqxH1F7MDsW9g`ZPqC51
     N00fc1r  s2019 08 09Ffg8*9:CAdMLeD%g0K$]IR:b?TvI%w%FdP#2MxvN#m$(54-mLVEfC51
     N00fc1r  S2019 08 09??uoBTlH0fQ3R$f),F,Jhi_u\1Q(QJ!tC[fk[w1fddE*mQPS+!utC51
     N00fc1r  s2019 08 09:p1%!90n77L@)-qnN\2s@Y$q20L-^@WoE3b/mVmnL3Q4+ybA25akC51
     N00fc1r  S2019 08 0992X#8?XQ1WdtgW*A$Rnk)(v)Dqo33`LEr*88FpC1(-_IjjBB^g@cC51
     N00fc1r  s2019 08 095XQHrXHk:]b0Mlg3;+W,'yDnY?2B]i$M!r=@UY+5,w?maPyBPwj/C51
     N00fc1r  S2019 08 09W,TY`C73D+a^:tC)A_hPgBZgD[DP5W62nJV2/qK$kn-Kim%WmVxjC51
     N00fc1r  s2019 08 09jq14RUdA2USZYcmhZrF%fTP0!0AHftl0k#EC2cxqYQZtnx@MNW()C51
     N00fc1r  S2019 08 09gJ,-DR5Vc2BPAy!TP5Z$)2E0PMgYWU)=b'oZ%w(H$XiW3CaHWf+iC51
     N00fc1r  s2019 08 091;?8\RI75fT\h2afn/jR!9Oba,NFu9;oRxG!i7BwS$f@?R4)v;[wC51
     N00fc1r  S2019 08 09T19pqhpG[230=iST1Qbi=\.Ip7Eesvt^iD/W:V9LL6jIjxZA:I8vC51
     N00fc1r  s2019 08 09XaGo`2B\,Z%Pj]kPqM0.qZxI:?dW`PraEXtBnZVse0V!`'Nq5y+3C51
     N00fc1r  S2019 08 09Hy,2==Mm5hmGbi;wE5bFyr!`yO15(pPoc=3ZDJ2MqO3Lb4b!,c;+C51
     N00fc1r  s2019 08 09lttvQ$lnA%N?_xR3J[O7-kmuSH'dfbD;\AFag:\FB+A.rki\vmOqC51
     N00fc1r  S2019 08 09!wRqarZ`g'3WHM:npykJL69NriuG:vDFn`r(F`D'sVO!pCKfvpj,C51
     N00fc1r  s2019 08 09]PXLY@WfJq^,qx+xra'MW$xwUngWTJbfPhEpD6IttUEs`DEG%rX^C51
     N00fc1r  S2019 08 09JU9rBpF2lvklyG(HuW#A*clickeOeDhere!x(%SAQPl1vX#s3H?2C51
     N00fc1r  s2019 08 09oH4k%k2c/QlOuGMXLZyW0Eha$E47mS#forb!7-Z(?w8pigF6n$NWC51
     N00fc1r  S2019 08 09s9W;T5`h-u)Jw@W1w/:GR[Gi)K_2]3%:NYOi!UPv8M2X94/H)0XCC51
     N00fc1r  s2019 08 09H))4@p9ZDLcgMr#0+BPD19l:JFX(DZe'n,wa@u3^c:V[rAS#=^GNC51
     N00fc1r  S2019 08 09wmB!mU)75Ir^UoEOE33b'jCyeP(4#WfpSg.KUDt(\)Q[Xvnl^P6[C51
     N00fc1r  s2019 08 09O!f,]Tc:@Zn.xVY--i66Arn=@:VpPk+1`ifI],]+n5b'w4f-Ja%sC51
     N00fc1r  S2019 08 10%y35JZ$#ldlXg*%53nQnEH)2U-s4R3:A72V;5HY\ZGfRU?ta4@/qC51
     N00fc1r  s2019 08 10,$YR+f?EaexplanationWW=rF?R(SSn,Y$K-e9'N0gl5!D@gc?(@C51
     N00fc1r  S2019 08 10P9v?EYMxMYW+^dpRFDb36Q44KUxj^rt8eKW0**.1=?=V^g.*2JqVC51
     N00fc1r  s2019 08 10,7';iLS;Fk'qI7U-g%?*5#qwa]GY:W?+_Zt14i1%p](b8jb%o[c^C51
     N00fc1r KC2019 08 119[[Tr\32:R=y3kd![OQ2/mKS/*kn`^)A8!#L4=X+pEw4FXdMcv6WH21
     N00fc1r KC2019 08 11!if,k1+I)Lb^)hr!$qFU,l3psvF/-HRN.w_.(ck.KO8m9mZd95p,H21
     N00fc1r KC2019 08 11@YRAi`iu4wsM_U6*d;YV.5II3o^^U`X5myXSBSA?HX69b.v0=1YsH21
     N00fc1r KC2019 08 12.47747 03 36 25.87 -11 49 48.4    ~8CBq 20.0 RoNEOCP291
     N00fc1r KC2019 08 12.48046 03 36 26.26 -11 49 47.2    ~8CBq 19.9 RoNEOCP291
     N00fc1r KC2019 08 12.48345 03 36 26.65 -11 49 46.2    ~8CBq 20.0 RoNEOCP291

Station data:
(291) LPL/Spacewatch II  (N31.961669 W111.599905)  US/Arizona.  Observers J.
   V. Scotti, R. S. McMillan. 1.8-m f/2.7 reflector + CCD.
(C51) WISE. Measurers A. Mainzer, E. Wright, J. Bauer, T. Grav, J. Dailey, J.
   Masiero, R. Cutri, R. McMillan, R. Walker.
(H21) Astronomical Research Observatory, Westfield  (N39.483057 W87.968270)
   US/Illinois. 0.76-m f/3.0 astrograph + CCD.

Orbital elements:  N00fc1r
   Perihelion 2019 Aug 8.162347 TT =  3:53:46 (JD 2458703.662347)
Epoch 2019 Aug 12.0 TT = JDT 2458707.5   Earth MOID: 0.6539   AutoNEOCP
M   1.08365441                      (J2000 ecliptic)
n   0.28237423     Peri.  281.83313
a   2.30101439     Node    75.93849
e   0.3511738      Incl.   22.18555
P   3.49           H   17.8     G   0.15   q 1.49295819  Q 3.10907059
From 29 observations 2019 Aug. 7-12; mean residual 1".02
Residuals in arcseconds: 
190807 C51  .12+  .36-    190809 C51  .07+  .44+    190809 C51  2.7+  3.3+    
190807 C51  1.3-  .35-    190809 C51  .34-  .19+    190810 C51  .61+  .64-    
190808 C51  .05+  .13+    190809 C51  .29-  1.6-    190810 C51  .22-  .20+    
190808 C51  .37-  .22-    190809 C51  2.9-  1.4+    190811 H21  .04+  .16-    
190808 C51  .31+  .58-    190809 C51  .43+  .48-    190811 H21  .04-  .19+    
190808 C51  1.7-  1.8-    190809 C51  .29+  .16-    190811 H21  .10-  .16+    
190808 C51  .06+  .02+    190809 C51  .75+  .28-    190812 291  .22-  .26-    
190808 C51  1.1+  .14+    190809 C51  .24-  .15+    190812 291  .10-  .04-    
190808 C51  .04+  .16+    190809 C51  .92-  .54-    190812 291  .03+  .03-    
190808 C51  3.2+  .67+    190809 C51  1.5+  1.4+    

Ephemerides (geocentric):
Date (UTC) HH   RA              Dec         delta   r     elong  mag
---- -- -- --  -------------   -----------  ------ ------ -----  ---
2019 08 19 16  03 51 22.566   -11 10 55.80  1.0506 1.4960  93.0 20.5
2019 08 19 17  03 51 27.534   -11 10 42.75  1.0504 1.4961  93.0 20.5
2019 08 19 18  03 51 32.499   -11 10 29.70  1.0502 1.4961  93.0 20.5
2019 08 19 19  03 51 37.461   -11 10 16.66  1.0500 1.4961  93.0 20.5
2019 08 19 20  03 51 42.421   -11 10 03.63  1.0498 1.4961  93.0 20.5
2019 08 19 21  03 51 47.377   -11 09 50.60  1.0496 1.4961  93.0 20.5
2019 08 19 22  03 51 52.331   -11 09 37.57  1.0494 1.4962  93.0 20.5
2019 08 19 23  03 51 57.282   -11 09 24.55  1.0492 1.4962  93.1 20.5
2019 08 20 00  03 52 02.231   -11 09 11.53  1.0490 1.4962  93.1 20.5
2019 08 20 01  03 52 07.177   -11 08 58.52  1.0489 1.4962  93.1 20.5
2019 08 20 02  03 52 12.119   -11 08 45.51  1.0487 1.4963  93.1 20.5
2019 08 20 03  03 52 17.060   -11 08 32.51  1.0485 1.4963  93.1 20.5
2019 08 20 04  03 52 21.997   -11 08 19.51  1.0483 1.4963  93.1 20.5
2019 08 20 05  03 52 26.931   -11 08 06.52  1.0481 1.4963  93.1 20.5
2019 08 20 06  03 52 31.863   -11 07 53.53  1.0479 1.4964  93.2 20.5
2019 08 20 07  03 52 36.792   -11 07 40.55  1.0477 1.4964  93.2 20.5
2019 08 20 08  03 52 41.718   -11 07 27.57  1.0475 1.4964  93.2 20.5
2019 08 20 09  03 52 46.642   -11 07 14.59  1.0473 1.4964  93.2 20.5
2019 08 20 10  03 52 51.563   -11 07 01.62  1.0471 1.4964  93.2 20.5
2019 08 20 11  03 52 56.480   -11 06 48.66  1.0469 1.4965  93.2 20.5
2019 08 20 12  03 53 01.395   -11 06 35.70  1.0467 1.4965  93.2 20.5
2019 08 20 13  03 53 06.308   -11 06 22.74  1.0465 1.4965  93.3 20.5
2019 08 20 14  03 53 11.217   -11 06 09.79  1.0463 1.4965  93.3 20.5
2019 08 20 15  03 53 16.124   -11 05 56.85  1.0461 1.4966  93.3 20.5
2019 08 20 16  03 53 21.028   -11 05 43.90  1.0459 1.4966  93.3 20.5
2019 08 20 17  03 53 25.929   -11 05 30.97  1.0457 1.4966  93.3 20.5
2019 08 20 18  03 53 30.827   -11 05 18.03  1.0455 1.4966  93.3 20.5
2019 08 20 19  03 53 35.723   -11 05 05.11  1.0453 1.4967  93.3 20.5
2019 08 20 20  03 53 40.615   -11 04 52.18  1.0451 1.4967  93.4 20.5
2019 08 20 21  03 53 45.505   -11 04 39.26  1.0449 1.4967  93.4 20.5
2019 08 20 22  03 53 50.392   -11 04 26.35  1.0447 1.4967  93.4 20.5
2019 08 20 23  03 53 55.276   -11 04 13.44  1.0446 1.4968  93.4 20.5
2019 08 21 00  03 54 00.158   -11 04 00.53  1.0444 1.4968  93.4 20.5
2019 08 21 01  03 54 05.036   -11 03 47.63  1.0442 1.4968  93.4 20.4
2019 08 21 02  03 54 09.912   -11 03 34.74  1.0440 1.4968  93.4 20.4
2019 08 21 03  03 54 14.785   -11 03 21.85  1.0438 1.4969  93.5 20.4
2019 08 21 04  03 54 19.655   -11 03 08.96  1.0436 1.4969  93.5 20.4
2019 08 21 05  03 54 24.522   -11 02 56.08  1.0434 1.4969  93.5 20.4
2019 08 21 06  03 54 29.387   -11 02 43.20  1.0432 1.4969  93.5 20.4
2019 08 21 07  03 54 34.249   -11 02 30.33  1.0430 1.4970  93.5 20.4
2019 08 21 08  03 54 39.107   -11 02 17.46  1.0428 1.4970  93.5 20.4
2019 08 21 09  03 54 43.963   -11 02 04.59  1.0426 1.4970  93.5 20.4
2019 08 21 10  03 54 48.817   -11 01 51.73  1.0424 1.4970  93.6 20.4
2019 08 21 11  03 54 53.667   -11 01 38.88  1.0422 1.4971  93.6 20.4
2019 08 21 12  03 54 58.514   -11 01 26.03  1.0420 1.4971  93.6 20.4
2019 08 21 13  03 55 03.359   -11 01 13.18  1.0418 1.4971  93.6 20.4
2019 08 21 14  03 55 08.201   -11 01 00.34  1.0416 1.4971  93.6 20.4
2019 08 21 15  03 55 13.040   -11 00 47.50  1.0414 1.4972  93.6 20.4